CGF621 LFML-LFKJ

Flight info

Callsign CGF621
Flight time 0h 39m
Altitude 23000
Route TINOT Z154 RUBAS
Aircraft B738/M-SDE2E3FGHIRWXY/LB1

Departure

Time 2026-04-24 22:25
Airport Marseille Provence Airport (LFML)

Arrival

Time 2026-04-24 23:05
Airport Ajaccio Napoléon Bonaparte airport (LFKJ)
Time Latitude Longitude Altitude Speed Heading
2026-04-24 22:03 43.44643 5.21714 30 ft 0 kts 326°
2026-04-24 22:16 43.44643 5.21715 26 ft 2 kts 326°
2026-04-24 22:16 43.44622 5.21734 27 ft 4 kts 324°
2026-04-24 22:16 43.44601 5.21757 27 ft 4 kts 313°
2026-04-24 22:16 43.44589 5.21783 28 ft 4 kts 251°
2026-04-24 22:17 43.44591 5.21790 28 ft 1 kts 212°
2026-04-24 22:20 43.44582 5.21782 28 ft 4 kts 212°
2026-04-24 22:20 43.44550 5.21756 28 ft 6 kts 211°
2026-04-24 22:20 43.44505 5.21717 29 ft 9 kts 212°
2026-04-24 22:20 43.44446 5.21673 29 ft 11 kts 200°
2026-04-24 22:21 43.44377 5.21615 30 ft 13 kts 228°
2026-04-24 22:21 43.44327 5.21498 30 ft 15 kts 243°
2026-04-24 22:21 43.44275 5.21363 29 ft 16 kts 242°
2026-04-24 22:21 43.44222 5.21229 29 ft 16 kts 241°
2026-04-24 22:22 43.44201 5.21094 29 ft 15 kts 297°
2026-04-24 22:22 43.44266 5.20985 27 ft 14 kts 305°
2026-04-24 22:22 43.44316 5.20869 30 ft 14 kts 301°
2026-04-24 22:22 43.44385 5.20757 24 ft 17 kts 316°
2026-04-24 22:23 43.44471 5.20635 22 ft 19 kts 314°
2026-04-24 22:23 43.44564 5.20502 20 ft 19 kts 314°
2026-04-24 22:23 43.44637 5.20396 18 ft 15 kts 314°
2026-04-24 22:23 43.44659 5.20282 18 ft 13 kts 244°
2026-04-24 22:24 43.44586 5.20219 18 ft 13 kts 173°
2026-04-24 22:24 43.44515 5.20303 21 ft 18 kts 134°
2026-04-24 22:24 43.44268 5.20653 26 ft 90 kts 134°
2026-04-24 22:24 43.43673 5.21496 67 ft 149 kts 135°
2026-04-24 22:25 43.42886 5.22563 547 ft 167 kts 136°
2026-04-24 22:25 43.41999 5.23669 1209 ft 177 kts 141°
2026-04-24 22:25 43.40935 5.24572 1806 ft 187 kts 155°
2026-04-24 22:25 43.39690 5.25422 2110 ft 210 kts 152°
2026-04-24 22:26 43.38389 5.26523 2315 ft 231 kts 148°
2026-04-24 22:26 43.36990 5.27763 2623 ft 246 kts 148°
2026-04-24 22:26 43.35488 5.29076 2901 ft 263 kts 148°
2026-04-24 22:26 43.33921 5.30445 3576 ft 268 kts 148°
2026-04-24 22:27 43.32353 5.31831 4403 ft 268 kts 148°
2026-04-24 22:27 43.30650 5.32831 5144 ft 269 kts 173°
2026-04-24 22:27 43.28777 5.32938 5885 ft 271 kts 180°
2026-04-24 22:27 43.26893 5.32963 6557 ft 276 kts 180°
2026-04-24 22:28 43.24960 5.32987 7277 ft 279 kts 180°
2026-04-24 22:28 43.23006 5.33017 8056 ft 281 kts 180°
2026-04-24 22:28 43.21041 5.33053 8841 ft 283 kts 179°
2026-04-24 22:28 43.19054 5.33094 9606 ft 286 kts 179°
2026-04-24 22:29 43.14966 5.33186 10581 ft 315 kts 179°
2026-04-24 22:29 43.12682 5.33240 10758 ft 339 kts 179°
2026-04-24 22:29 43.10248 5.33298 11015 ft 357 kts 179°
2026-04-24 22:30 43.07733 5.33355 11570 ft 364 kts 179°
2026-04-24 22:30 43.05181 5.33411 12258 ft 368 kts 179°
2026-04-24 22:30 43.02601 5.33467 12948 ft 372 kts 178°
2026-04-24 22:30 43.00023 5.33493 13617 ft 378 kts 180°
2026-04-24 22:31 42.97365 5.33363 14300 ft 382 kts 182°
2026-04-24 22:31 42.94699 5.33164 15054 ft 384 kts 183°
2026-04-24 22:31 42.92020 5.33329 15686 ft 388 kts 165°
2026-04-24 22:31 42.89627 5.34929 16485 ft 385 kts 140°
2026-04-24 22:32 42.87856 5.37602 17185 ft 386 kts 122°
2026-04-24 22:32 42.86576 5.40839 17828 ft 390 kts 116°
2026-04-24 22:32 42.85377 5.44209 18458 ft 394 kts 115°
2026-04-24 22:32 42.84209 5.47566 19002 ft 398 kts 115°
2026-04-24 22:33 42.83015 5.50995 19556 ft 402 kts 115°
2026-04-24 22:33 42.81797 5.54460 20084 ft 406 kts 115°
2026-04-24 22:33 42.80559 5.57950 20637 ft 410 kts 115°
2026-04-24 22:33 42.79303 5.61459 21170 ft 414 kts 115°
2026-04-24 22:34 42.78028 5.65001 21665 ft 418 kts 115°
2026-04-24 22:34 42.76754 5.68525 22154 ft 422 kts 115°
2026-04-24 22:34 42.75446 5.72131 22692 ft 425 kts 115°
2026-04-24 22:34 42.74139 5.75730 23143 ft 428 kts 115°
2026-04-24 22:35 42.72805 5.79398 23127 ft 436 kts 115°
2026-04-24 22:35 42.71451 5.83114 23141 ft 438 kts 115°
2026-04-24 22:35 42.70555 5.85571 23119 ft 436 kts 115°
2026-04-24 22:35 42.68752 5.90505 23140 ft 435 kts 115°
2026-04-24 22:36 42.67404 5.94192 23137 ft 435 kts 115°
2026-04-24 22:36 42.66071 5.97832 23136 ft 435 kts 115°
2026-04-24 22:36 42.64719 6.01519 23136 ft 435 kts 115°
2026-04-24 22:36 42.63363 6.05213 23136 ft 435 kts 115°
2026-04-24 22:37 42.62010 6.08895 23134 ft 435 kts 115°
2026-04-24 22:37 42.60668 6.12540 23143 ft 435 kts 115°
2026-04-24 22:37 42.59878 6.14685 23122 ft 431 kts 115°
2026-04-24 22:38 42.59012 6.17031 23091 ft 409 kts 115°
2026-04-24 22:38 42.57354 6.21513 23138 ft 397 kts 115°
2026-04-24 22:38 42.56112 6.24873 23150 ft 403 kts 114°
2026-04-24 22:38 42.55269 6.27158 23151 ft 412 kts 115°
2026-04-24 22:39 42.53962 6.30695 23147 ft 425 kts 115°
2026-04-24 22:39 42.52614 6.34335 23147 ft 436 kts 115°
2026-04-24 22:39 42.51240 6.38035 23146 ft 440 kts 115°
2026-04-24 22:39 42.49867 6.41726 23119 ft 436 kts 116°
2026-04-24 22:40 42.48500 6.45392 23135 ft 433 kts 115°
2026-04-24 22:40 42.47159 6.48986 23127 ft 431 kts 115°
2026-04-24 22:40 42.45804 6.52616 23127 ft 430 kts 115°
2026-04-24 22:40 42.44449 6.56241 23139 ft 430 kts 115°
2026-04-24 22:41 42.43090 6.59872 23144 ft 431 kts 115°
2026-04-24 22:41 42.41736 6.63486 23133 ft 432 kts 115°
2026-04-24 22:41 42.40388 6.67080 23133 ft 434 kts 115°
2026-04-24 22:41 42.39017 6.70730 23131 ft 435 kts 115°
2026-04-24 22:42 42.37638 6.74396 23146 ft 436 kts 115°
2026-04-24 22:42 42.36262 6.78049 23129 ft 436 kts 115°
2026-04-24 22:42 42.34884 6.81702 23134 ft 436 kts 115°
2026-04-24 22:42 42.33519 6.85319 23155 ft 436 kts 115°
2026-04-24 22:43 42.32136 6.88976 23141 ft 436 kts 115°
2026-04-24 22:43 42.30757 6.92617 23135 ft 435 kts 115°
2026-04-24 22:43 42.29381 6.96248 23136 ft 434 kts 115°
2026-04-24 22:43 42.28003 6.99878 23138 ft 433 kts 115°
2026-04-24 22:44 42.26627 7.03499 23139 ft 432 kts 115°
2026-04-24 22:44 42.25251 7.07115 23142 ft 432 kts 115°
2026-04-24 22:44 42.23878 7.10721 23139 ft 432 kts 116°
2026-04-24 22:44 42.22503 7.14323 23146 ft 432 kts 115°
2026-04-24 22:45 42.21128 7.17926 23142 ft 430 kts 115°
2026-04-24 22:45 42.19793 7.21412 23096 ft 416 kts 116°
2026-04-24 22:45 42.18476 7.24848 22676 ft 408 kts 116°
2026-04-24 22:45 42.17178 7.28234 22181 ft 403 kts 116°
2026-04-24 22:46 42.15896 7.31574 21682 ft 398 kts 116°
2026-04-24 22:46 42.14627 7.34878 21169 ft 394 kts 116°
2026-04-24 22:46 42.13373 7.38138 20668 ft 390 kts 116°
2026-04-24 22:46 42.12141 7.41341 20177 ft 387 kts 116°
2026-04-24 22:47 42.10904 7.44549 19682 ft 384 kts 116°
2026-04-24 22:47 42.09673 7.47739 19193 ft 381 kts 116°
2026-04-24 22:47 42.08457 7.50887 18709 ft 378 kts 116°
2026-04-24 22:47 42.07244 7.54024 18180 ft 376 kts 116°
2026-04-24 22:48 42.06054 7.57099 17648 ft 373 kts 116°
2026-04-24 22:48 42.04858 7.60184 17147 ft 370 kts 116°
2026-04-24 22:48 42.03673 7.63236 16658 ft 366 kts 115°
2026-04-24 22:48 42.02498 7.66262 16174 ft 363 kts 115°
2026-04-24 22:49 42.01329 7.69268 15711 ft 360 kts 115°
2026-04-24 22:49 42.00170 7.72246 15243 ft 357 kts 115°
2026-04-24 22:49 41.99033 7.75164 14786 ft 355 kts 115°
2026-04-24 22:49 41.97878 7.78125 14320 ft 353 kts 115°
2026-04-24 22:50 41.96755 7.81001 13858 ft 351 kts 115°
2026-04-24 22:50 41.95625 7.83894 13347 ft 348 kts 115°
2026-04-24 22:50 41.94498 7.86777 12862 ft 346 kts 116°
2026-04-24 22:50 41.93382 7.89625 12395 ft 343 kts 116°
2026-04-24 22:51 41.92274 7.92452 11937 ft 341 kts 116°
2026-04-24 22:51 41.91172 7.95262 11491 ft 338 kts 116°
2026-04-24 22:51 41.90077 7.98051 11051 ft 336 kts 116°
2026-04-24 22:51 41.89014 8.00753 10882 ft 326 kts 116°
2026-04-24 22:52 41.87973 8.03399 10721 ft 315 kts 116°
2026-04-24 22:52 41.86962 8.05964 10574 ft 306 kts 116°
2026-04-24 22:52 41.85981 8.08450 10453 ft 296 kts 116°
2026-04-24 22:52 41.85030 8.10863 10315 ft 288 kts 116°
2026-04-24 22:53 41.84106 8.13202 10201 ft 279 kts 116°
2026-04-24 22:53 41.83208 8.15476 9996 ft 275 kts 116°
2026-04-24 22:53 41.82314 8.17738 9707 ft 273 kts 116°
2026-04-24 22:53 41.81437 8.19956 9423 ft 271 kts 116°
2026-04-24 22:54 41.80552 8.22193 9139 ft 269 kts 116°
2026-04-24 22:54 41.79677 8.24403 8858 ft 268 kts 116°
2026-04-24 22:54 41.78805 8.26603 8583 ft 267 kts 117°
2026-04-24 22:54 41.77935 8.28794 8304 ft 265 kts 117°
2026-04-24 22:55 41.77080 8.30948 7996 ft 265 kts 117°
2026-04-24 22:55 41.76206 8.33148 7637 ft 268 kts 117°
2026-04-24 22:55 41.75330 8.35350 7344 ft 267 kts 117°
2026-04-24 22:55 41.74455 8.37548 7054 ft 266 kts 117°
2026-04-24 22:56 41.73585 8.39734 6773 ft 266 kts 117°
2026-04-24 22:56 41.72714 8.41917 6486 ft 265 kts 117°
2026-04-24 22:56 41.71857 8.44066 6188 ft 264 kts 117°
2026-04-24 22:56 41.71003 8.46207 6058 ft 256 kts 117°
2026-04-24 22:57 41.70175 8.48281 5922 ft 249 kts 117°
2026-04-24 22:57 41.69370 8.50294 5800 ft 241 kts 117°
2026-04-24 22:57 41.68588 8.52248 5685 ft 234 kts 117°
2026-04-24 22:57 41.67832 8.54135 5583 ft 227 kts 118°
2026-04-24 22:58 41.67117 8.55955 5411 ft 222 kts 112°
2026-04-24 22:58 41.66952 8.57955 5189 ft 218 kts 73°
2026-04-24 22:58 41.67648 8.59735 5014 ft 215 kts 56°
2026-04-24 22:58 41.68504 8.61352 4796 ft 210 kts 54°
2026-04-24 22:59 41.69350 8.62926 4542 ft 205 kts 54°
2026-04-24 22:59 41.70159 8.64444 4316 ft 201 kts 54°
2026-04-24 22:59 41.71833 8.67368 3870 ft 196 kts 35°
2026-04-24 23:00 41.73051 8.68114 3704 ft 190 kts 21°
2026-04-24 23:00 41.74244 8.68889 3507 ft 191 kts 26°
2026-04-24 23:00 41.75415 8.69658 3326 ft 186 kts 24°
2026-04-24 23:00 41.76569 8.70380 3160 ft 178 kts 24°
2026-04-24 23:01 41.77681 8.71073 2943 ft 175 kts 24°
2026-04-24 23:01 41.78775 8.71755 2721 ft 172 kts 24°
2026-04-24 23:01 41.79856 8.72429 2504 ft 171 kts 24°
2026-04-24 23:01 41.80938 8.73104 2269 ft 170 kts 24°
2026-04-24 23:02 41.81986 8.73758 2046 ft 165 kts 24°
2026-04-24 23:02 41.83023 8.74405 1846 ft 165 kts 24°
2026-04-24 23:02 41.84067 8.75055 1618 ft 166 kts 24°
2026-04-24 23:02 41.85104 8.75702 1380 ft 160 kts 25°
2026-04-24 23:03 41.86064 8.76301 1191 ft 147 kts 25°
2026-04-24 23:03 41.86986 8.76875 944 ft 143 kts 25°
2026-04-24 23:03 41.87866 8.77422 852 ft 140 kts 26°
2026-04-24 23:03 41.88757 8.77985 699 ft 146 kts 25°
2026-04-24 23:04 41.89692 8.78553 495 ft 149 kts 25°
2026-04-24 23:04 41.90622 8.79147 244 ft 146 kts 25°
2026-04-24 23:04 41.91517 8.79697 52 ft 138 kts 26°
2026-04-24 23:04 41.92279 8.80176 23 ft 92 kts 25°
2026-04-24 23:05 41.92626 8.80393 25 ft 44 kts 25°
2026-04-24 23:05 41.92748 8.80448 23 ft 14 kts 339°
2026-04-24 23:05 41.92800 8.80341 21 ft 15 kts 295°
2026-04-24 23:05 41.92818 8.80217 20 ft 14 kts 239°
2026-04-24 23:06 41.92745 8.80137 20 ft 13 kts 212°
2026-04-24 23:06 41.92664 8.80082 22 ft 13 kts 205°
2026-04-24 23:06 41.92584 8.80033 21 ft 13 kts 204°
2026-04-24 23:06 41.92501 8.79982 21 ft 14 kts 204°
2026-04-24 23:07 41.92408 8.79924 20 ft 16 kts 205°
2026-04-24 23:07 41.92313 8.79862 22 ft 13 kts 213°
2026-04-24 23:07 41.92300 8.79748 20 ft 13 kts 274°
2026-04-24 23:07 41.92307 8.79631 20 ft 12 kts 275°
2026-04-24 23:08 41.92314 8.79516 20 ft 12 kts 275°
2026-04-24 23:08 41.92321 8.79404 20 ft 12 kts 275°
2026-04-24 23:08 41.92328 8.79295 20 ft 12 kts 275°
2026-04-24 23:08 41.92335 8.79194 20 ft 9 kts 275°
2026-04-24 23:09 41.92315 8.79140 21 ft 6 kts 205°
2026-04-24 23:09 41.92300 8.79136 20 ft 1 kts 186°
2026-04-24 23:09 41.92299 8.79136 20 ft 0 kts 186°